| time (UTC) | temp C | wind direction | speed KPH | gust KPH | rain 1hr cm | rain 24hr cm | rain mn cm | humidity % | barometer mb |
| 20260902173130 | 11 | 328 | 8.0 | 17.7 | 0.00 | 0.00 | 0.00 | 70 | 1009.1 |
| 20260902171528 | 11 | 328 | 4.8 | 17.7 | 0.00 | 0.00 | 0.00 | 69 | 1009.3 |
| 20260902170027 | 11 | 327 | 8.0 | 22.5 | 0.00 | 0.00 | 0.00 | 68 | 1009.1 |
| 20260902164524 | 11 | 313 | 4.8 | 19.3 | 0.00 | 0.00 | 0.00 | 70 | 1009.6 |
| 20260902163138 | 11 | 336 | 3.2 | 14.5 | 0.00 | 0.00 | 0.00 | 71 | 1010.1 |
| 20260902161520 | 11 | 304 | 4.8 | 14.5 | 0.00 | 0.00 | 0.00 | 71 | 1010.2 |
| 20260902160018 | 11 | 308 | 4.8 | 14.5 | 0.00 | 0.00 | 0.00 | 71 | 1010.2 |
| 20260902154525 | 11 | 330 | 6.4 | 14.5 | 0.00 | 0.00 | 0.00 | 72 | 1010.0 |
| 20260902153116 | 11 | 321 | 6.4 | 14.5 | 0.00 | 0.00 | 0.00 | 72 | 1010.1 |
| 20260902151514 | 11 | 311 | 3.2 | 14.5 | 0.00 | 0.00 | 0.00 | 72 | 1010.2 |
| 20260902150012 | 11 | 315 | 3.2 | 11.3 | 0.00 | 0.00 | 0.00 | 71 | 1010.1 |
| 20260902144518 | 11 | 259 | 3.2 | 14.5 | 0.00 | 0.00 | 0.00 | 70 | 1010.1 |
| 20260902143109 | 11 | 305 | 6.4 | 14.5 | 0.00 | 0.00 | 0.00 | 70 | 1010.1 |
| 20260902141509 | 11 | 325 | 4.8 | 12.9 | 0.00 | 0.00 | 0.00 | 69 | 1010.2 |
| 20260902140002 | 11 | 292 | 3.2 | 16.1 | 0.00 | 0.00 | 0.00 | 68 | 1010.4 |
| 20260902134601 | 11 | 308 | 6.4 | 14.5 | 0.00 | 0.00 | 0.00 | 67 | 1010.5 |
| 20260902133108 | 12 | 300 | 4.8 | 16.1 | 0.00 | 0.00 | 0.00 | 67 | 1010.7 |
| 20260902131602 | 12 | 327 | 6.4 | 16.1 | 0.00 | 0.00 | 0.00 | 67 | 1010.8 |
| 20260902130053 | 12 | 302 | 4.8 | 16.1 | 0.00 | 0.00 | 0.00 | 66 | 1010.9 |
| 20260902124552 | 12 | 287 | 1.6 | 14.5 | 0.00 | 0.00 | 0.00 | 66 | 1011.1 |
| 20260902123106 | 13 | 309 | 3.2 | 11.3 | 0.00 | 0.00 | 0.00 | 64 | 1011.3 |
| 20260902121558 | 13 | 283 | 6.4 | 16.1 | 0.00 | 0.00 | 0.00 | 64 | 1011.4 |
| 20260902120105 | 13 | 316 | 3.2 | 14.5 | 0.00 | 0.00 | 0.00 | 69 | 1011.6 |
| 20260902114550 | 12 | 309 | 0.0 | 8.0 | 0.00 | 0.00 | 0.00 | 70 | 1011.6 |
| 20260902113051 | 13 | 347 | 0.0 | 4.8 | 0.00 | 0.00 | 0.00 | 69 | 1011.7 |
| 20260902111556 | 13 | 347 | 0.0 | 6.4 | 0.00 | 0.00 | 0.00 | 69 | 1011.7 |
| 20260902110048 | 13 | 348 | 1.6 | 8.0 | 0.00 | 0.00 | 0.00 | 70 | 1011.8 |
| 20260902104548 | 12 | 318 | 0.0 | 4.8 | 0.00 | 0.00 | 0.00 | 70 | 1011.8 |
| 20260902103048 | 12 | 325 | 0.0 | 4.8 | 0.00 | 0.00 | 0.00 | 70 | 1011.9 |
| 20260902101550 | 12 | 309 | 0.0 | 3.2 | 0.00 | 0.00 | 0.00 | 70 | 1011.7 |
| 20260902094548 | 12 | 308 | 0.0 | 0.0 | 0.00 | 0.00 | 0.00 | 70 | 1011.4 |
| 20260902093048 | 12 | 308 | 0.0 | 0.0 | 0.00 | 0.00 | 0.00 | 70 | 1011.2 |
| 20260902091552 | 12 | 308 | 0.0 | 3.2 | 0.00 | 0.00 | 0.00 | 70 | 1011.1 |
| 20260902090047 | 12 | 284 | 0.0 | 1.6 | 0.00 | 0.00 | 0.00 | 69 | 1011.0 |
| 20260902084547 | 12 | 281 | 0.0 | 0.0 | 0.00 | 0.00 | 0.00 | 68 | 1011.0 |
| 20260902083049 | 13 | 281 | 0.0 | 0.0 | 0.00 | 0.00 | 0.00 | 66 | 1011.1 |
| 20260902081549 | 13 | 281 | 0.0 | 1.6 | 0.00 | 0.00 | 0.00 | 65 | 1011.0 |
| 20260902080048 | 13 | 278 | 0.0 | 6.4 | 0.00 | 0.00 | 0.00 | 65 | 1011.1 |
| 20260902074552 | 14 | 269 | 0.0 | 4.8 | 0.00 | 0.00 | 0.00 | 64 | 1011.0 |
| 20260902073046 | 14 | 258 | 3.2 | 14.5 | 0.00 | 0.00 | 0.00 | 62 | 1010.9 |
| 20260902071547 | 15 | 263 | 1.6 | 11.3 | 0.00 | 0.00 | 0.00 | 62 | 1010.9 |
| 20260902070045 | 15 | 243 | 3.2 | 11.3 | 0.00 | 0.00 | 0.00 | 60 | 1010.9 |
| 20260902064543 | 15 | 248 | 3.2 | 11.3 | 0.00 | 0.00 | 0.00 | 60 | 1011.1 |
| 20260902063054 | 15 | 286 | 3.2 | 19.3 | 0.00 | 0.00 | 0.00 | 60 | 1011.4 |
| 20260902061600 | 16 | 219 | 6.4 | 19.3 | 0.00 | 0.00 | 0.00 | 59 | 1011.5 |
| 20260902060039 | 16 | 248 | 8.0 | 19.3 | 0.00 | 0.00 | 0.00 | 58 | 1011.7 |
| 20260902054544 | 16 | 271 | 9.7 | 22.5 | 0.00 | 0.00 | 0.00 | 59 | 1011.8 |
| 20260902053039 | 16 | 271 | 6.4 | 22.5 | 0.00 | 0.00 | 0.00 | 59 | 1011.9 |
| 20260902051544 | 16 | 228 | 9.7 | 20.9 | 0.00 | 0.00 | 0.00 | 59 | 1012.0 |
| 20260902050056 | 16 | 263 | 11.3 | 22.5 | 0.00 | 0.00 | 0.00 | 59 | 1012.1 |
| 20260902044538 | 16 | 223 | 9.7 | 20.9 | 0.00 | 0.00 | 0.00 | 58 | 1012.2 |
| 20260902043045 | 16 | 228 | 9.7 | 20.9 | 0.00 | 0.00 | 0.00 | 58 | 1012.1 |
| 20260902041539 | 16 | 270 | 9.7 | 17.7 | 0.00 | 0.00 | 0.00 | 59 | 1012.2 |
| 20260902040039 | 16 | 238 | 6.4 | 20.9 | 0.00 | 0.00 | 0.00 | 59 | 1012.4 |
| 20260902034538 | 16 | 290 | 9.7 | 19.3 | 0.00 | 0.00 | 0.00 | 59 | 1012.5 |
| 20260902033038 | 16 | 212 | 8.0 | 17.7 | 0.00 | 0.00 | 0.00 | 59 | 1012.9 |
| 20260902031538 | 15 | 250 | 8.0 | 19.3 | 0.00 | 0.00 | 0.00 | 59 | 1013.0 |
| 20260902030037 | 16 | 249 | 8.0 | 20.9 | 0.00 | 0.00 | 0.00 | 59 | 1013.4 |
| 20260902024546 | 15 | 231 | 9.7 | 20.9 | 0.00 | 0.00 | 0.00 | 59 | 1013.7 |
| 20260902023036 | 15 | 259 | 9.7 | 20.9 | 0.00 | 0.00 | 0.00 | 60 | 1014.0 |
| 20260902021535 | 15 | 262 | 8.0 | 17.7 | 0.00 | 0.00 | 0.00 | 62 | 1014.2 |
| 20260902020036 | 14 | 244 | 8.0 | 20.9 | 0.00 | 0.00 | 0.00 | 63 | 1014.4 |
| 20260902014534 | 15 | 232 | 8.0 | 19.3 | 0.00 | 0.00 | 0.00 | 62 | 1014.5 |
| 20260902013039 | 14 | 270 | 6.4 | 17.7 | 0.00 | 0.00 | 0.00 | 65 | 1014.7 |
| 20260902011536 | 13 | 277 | 8.0 | 14.5 | 0.00 | 0.00 | 0.00 | 66 | 1014.9 |
| 20260902010032 | 13 | 262 | 3.2 | 19.3 | 0.00 | 0.00 | 0.00 | 67 | 1015.1 |
| 20260902004532 | 13 | 286 | 1.6 | 17.7 | 0.00 | 0.00 | 0.00 | 68 | 1015.2 |
| 20260902003032 | 13 | 255 | 6.4 | 16.1 | 0.00 | 0.00 | 0.00 | 68 | 1015.3 |
| 20260902001531 | 13 | 284 | 6.4 | 16.1 | 0.00 | 0.00 | 0.00 | 69 | 1015.4 |
| 20260902000030 | 13 | 265 | 3.2 | 16.1 | 0.00 | 0.00 | 0.00 | 71 | 1015.5 |
| 20260901234529 | 13 | 257 | 4.8 | 16.1 | 0.00 | 0.00 | 0.00 | 72 | 1015.6 |
| 20260901233028 | 13 | 227 | 4.8 | 17.7 | 0.00 | 0.00 | 0.00 | 73 | 1015.4 |
| 20260901231529 | 12 | 244 | 6.4 | 19.3 | 0.00 | 0.00 | 0.00 | 73 | 1015.5 |
| 20260901230029 | 12 | 212 | 3.2 | 17.7 | 0.00 | 0.00 | 0.00 | 74 | 1015.5 |
| 20260901224534 | 12 | 287 | 8.0 | 14.5 | 0.00 | 0.00 | 0.00 | 76 | 1015.5 |
| 20260901223024 | 12 | 271 | 9.7 | 19.3 | 0.00 | 0.00 | 0.00 | 79 | 1015.3 |
| 20260901221522 | 12 | 250 | 4.8 | 14.5 | 0.00 | 0.00 | 0.00 | 81 | 1015.2 |
| 20260901220020 | 12 | 273 | 1.6 | 11.3 | 0.00 | 0.00 | 0.00 | 81 | 1014.9 |
| 20260901214518 | 12 | 231 | 4.8 | 12.9 | 0.00 | 0.00 | 0.00 | 81 | 1014.8 |
| 20260901213028 | 12 | 263 | 3.2 | 12.9 | 0.00 | 0.00 | 0.00 | 82 | 1014.7 |
| 20260901211514 | 12 | 261 | 4.8 | 16.1 | 0.00 | 0.00 | 0.00 | 83 | 1014.7 |
| 20260901210013 | 12 | 263 | 4.8 | 12.9 | 0.00 | 0.00 | 0.00 | 83 | 1014.4 |
| 20260901204511 | 12 | 247 | 1.6 | 11.3 | 0.00 | 0.00 | 0.00 | 84 | 1014.2 |
| 20260901203007 | 12 | 239 | 3.2 | 16.1 | 0.00 | 0.00 | 0.00 | 86 | 1013.7 |
| 20260901201508 | 12 | 241 | 6.4 | 11.3 | 0.00 | 0.00 | 0.00 | 87 | 1013.6 |
| 20260901200002 | 12 | 284 | 1.6 | 12.9 | 0.00 | 0.00 | 0.00 | 88 | 1013.4 |
| 20260901194601 | 13 | 275 | 0.0 | 8.0 | 0.00 | 0.00 | 0.00 | 87 | 1013.3 |
| 20260901193057 | 13 | 263 | 1.6 | 11.3 | 0.00 | 0.00 | 0.00 | 87 | 1013.2 |
| 20260901191611 | 13 | 250 | 1.6 | 14.5 | 0.00 | 0.00 | 0.00 | 86 | 1013.1 |
| 20260901190053 | 13 | 237 | 6.4 | 17.7 | 0.00 | 0.00 | 0.00 | 85 | 1013.0 |
| 20260901184609 | 13 | 242 | 4.8 | 16.1 | 0.00 | 0.00 | 0.00 | 84 | 1012.7 |
| 20260901183051 | 14 | 223 | 4.8 | 16.1 | 0.00 | 0.00 | 0.00 | 84 | 1012.4 |
| 20260901181553 | 15 | 230 | 4.8 | 19.3 | 0.00 | 0.00 | 0.00 | 81 | 1012.3 |
| 20260901180040 | 15 | 267 | 9.7 | 22.5 | 0.00 | 0.00 | 0.00 | 78 | 1012.0 |
| 20260901174552 | 15 | 298 | 1.6 | 9.7 | 0.00 | 0.00 | 0.00 | 77 | 1011.7 |